OBJECT G, 66001

Orbit data source: Space-Track

You're viewing an Uncataloged Satellite

Recently launched and/or uncataloged satellites may have evolving metadata. Metadata may include but not limited to: Owner, Maufacturer, Bus, Motor, and Mission.

OBJECT G, 66001 is a satellite owned by Zhongguo Xingwang (CN) in LEO that was launched on Thu, 16 Oct 2025 UTC via a CHANG ZHENG 8A launch vehicle from the Wenchang Satellite Launch Center (WSC). Unknown objects in Earth's orbit typically refer to objects detected orbiting the Earth but have not yet been identified or cataloged. These objects could be anything from previously untracked satellites, spent rocket stages, debris from satellite collisions, or even natural meteoroids temporarily captured by Earth's gravity.

Loading next visibility...
Identifier
66001, 2025-231G
Orbit
LEO
Country
Flag of CNCN / PRC
Related business
Manufacturer
CAST
Mission
Operational spacecraft
Bus & Motor
GUOWANG C, Unknown motor
Mass
~800 kg wet, ~800 kg dry
Launch date (UTC)
2025-10-16 (4 weeks ago)
Launch vehicle
CHANG ZHENG 8A
Launch site
Wenchang Satellite Launch Center (WSC)
Object type
Unknown
Shape & HBR
Unknown shape, 1.1 m
Radar Cross Section
RCS unknown

Expand to show TLE details & history
Last TLE update: 3 days ago

TLE from 3 days ago
0 OBJECT G
1 66001U 25231G   25311.08876313  .00000106  00000-0  16347-3 0  9995
2 66001  50.0024 267.9775 0005328 357.9352   2.1529 14.03421492  3104
Epoch: 2025-11-07T02:07Z
TLE epoch observation values (Epoch: 2025-11-07T02:07:49.134Z)
Latitude
-0.00005°
Longitude
-170.51501°
Altitude
878.631 km
Speed
7.416 km/s
True Right ascension
17h 51m 54s
True Declination
0° 00' 00"
Sunlit
Object was in daylight at epoch
Visualization orbit readout
Latitude
Unknown
Longitude
Unknown
Altitude
Unknown
Speed
Unknown
Apparent Right ascension
Unknown
Apparent Declination
Unknown
Sunlit
N/A
Visualization observer readout
Local Sidereal Time
04:16:55
Azimuth
Unknown
Elevation
Unknown
Doppler factor
Unknown
Orbital elements
Apogee altitude
886.57 km
Perigee altitude
878.833 km
Semi-major axis
7,260.839 km
Eccentricity
0.00053
Inclination
50.0024°
RAAN
267.9775°
Arg. of periapsis
357.9352°
True anomaly
2.1552°
Mean anomaly
2.1529°
Eccentric anomaly
2.15405°
Mean motion
3.50803 °/min
Orbital period
102.62 mins
BSTAR
0.00016347
Loading maneuver chart data...
Computing Atmospheric mass density...
Loading historical data...
Loading historical data...
Loading historical data...
Loading historical data...
Loading historical data...
Loading historical data...
Loading historical data...

Documentation

Showing up to 5 results
|